This is the latest recevied weather packets stored in our database for station/object OE5WWO. If no packets are shown the sender has not sent any weather packets the latest 10 day(s).
| Time | Temp. | Humidity | Pressure | Rain* | Wind** | Luminosity | Snow |
|---|---|---|---|---|---|---|---|
| 1777881042 | 18.89° C | 55% | 1015.2 hPa | 0 mm | - | - | - |
| 1777880139 | 18.33° C | 56% | 1015.1 hPa | 0 mm | - | - | - |
| 1777879237 | 18.33° C | 58% | 1015.1 hPa | 0 mm | - | - | - |
| 1777876256 | 17.22° C | 60% | 1014.9 hPa | 0 mm | - | - | - |
| 1777873558 | 16.11° C | 62% | 1014.6 hPa | 0 mm | - | - | - |
| 1777866642 | 13.33° C | 70% | 1014 hPa | 0 mm | - | - | - |
| 1777865139 | 13.33° C | 69% | 1013.8 hPa | 0 mm | - | - | - |
| 1777864545 | 13.89° C | 69% | 1013.7 hPa | 0 mm | - | - | - |
| 1777864238 | 13.89° C | 69% | 1013.7 hPa | 0 mm | - | - | - |
| 1777862746 | 14.44° C | 67% | 1013.6 hPa | 0 mm | - | - | - |
| 1777860049 | 15° C | 64% | 1013 hPa | 0 mm | - | - | - |
| 1777859161 | 15° C | 62% | 1013 hPa | 0 mm | - | - | - |
| 1777857639 | 15.56° C | 60% | 1012.7 hPa | 0 mm | - | - | - |
| 1777856739 | 15.56° C | 60% | 1012.4 hPa | 0 mm | - | - | - |
| 1777856139 | 16.11° C | 59% | 1012.3 hPa | 0 mm | - | - | - |
| 1777855839 | 16.11° C | 58% | 1012.2 hPa | 0 mm | - | - | - |
| 1777854652 | 16.11° C | 57% | 1012.2 hPa | 0 mm | - | - | - |
| 1777851340 | 17.78° C | 52% | 1012.2 hPa | 0 mm | - | - | - |
| 1777850151 | 17.78° C | 51% | 1011.9 hPa | 0 mm | - | - | - |
| 1777846546 | 18.89° C | 49% | 1011.5 hPa | 0 mm | - | - | - |
| 1777845040 | 18.89° C | 46% | 1011.5 hPa | 0 mm | - | - | - |
| 1777844441 | 19.44° C | 46% | 1011.5 hPa | 0 mm | - | - | - |
| 1777843539 | 19.44° C | 46% | 1011.4 hPa | 0 mm | - | - | - |
| 1777842638 | 20° C | 46% | 1011.4 hPa | 0 mm | - | - | - |
| 1777842338 | 20° C | 46% | 1011.4 hPa | 0 mm | - | - | - |
* Rain latest hour (hover to see other rain measurements)
** Current wind speed in m/s (hover to see current wind gust speed)